Location: Unspecified
(0.0000°N, 0.0000°E)
Time: 09:21:10
(UTC+00:00)

Vanguard 2 - Pass Details

Date: 24 October 2021
Orbit: 554 x 2936 km, 32.9° (Epoch: 06 December)

Event Time Altitude Azimuth Distance (km) Brightness Sun altitude
Rises 08:05:47 0° 334° (NNW) 2,876 10.2 34.5°
Reaches altitude 10° 08:09:18 10° 3° (N) 1,837 9.5 35.4°
Maximum altitude 08:11:11 13° 32° (NNE) 1,637 9.6 35.8°
Drops below altitude 10° 08:13:04 10° 61° (ENE) 1,830 10.2 36.3°
Sets 08:16:33 0° 91° (E) 2,853 11.4 37.1°
